Location: Canazei
(46.4667°N, 11.7667°E)
Time: 06:57:43
(UTC+00:00)

ALOS - Pass Details

Date: 21 April 2021
Orbit: 682 x 685 km, 97.9° (Epoch: 15 May)

Event Time Altitude Azimuth Distance (km) Brightness Sun altitude
Rises 02:54:23 0° 20° (NNE) 3,059 6.6 -13.3°
Reaches altitude 10° 02:56:48 10° 29° (NNE) 2,138 5.9 -13.0°
Maximum altitude 03:01:07 36° 97° (E) 1,074 3.8 -12.4°
Drops below altitude 10° 03:05:24 10° 164° (SSE) 2,121 4.6 -11.7°
Sets 03:07:47 0° 173° (S) 3,031 5.4 -11.4°
